| time (UTC) | temp F | wind direction | speed MPH | gust MPH | rain 1hr in | rain 24hr in | rain mn in | humidity % | barometer mb |
| 20260508121558 | 41 | 0 | 0.0 | 0.0 | 0.00 | 0.00 | 0.00 | 92 | 1016.8 |
| 20260508120100 | 40 | 0 | 0.0 | 0.0 | 0.00 | 0.00 | 0.00 | 92 | 1016.9 |
| 20260508114554 | 39 | 224 | 0.0 | 1.0 | 0.00 | 0.00 | 0.00 | 92 | 1016.8 |
| 20260508113103 | 37 | 0 | 0.0 | 0.0 | 0.00 | 0.00 | 0.00 | 91 | 1016.7 |
| 20260508111556 | 37 | 0 | 0.0 | 0.0 | 0.00 | 0.00 | 0.00 | 91 | 1016.6 |
| 20260508110057 | 37 | 0 | 0.0 | 0.0 | 0.00 | 0.00 | 0.00 | 91 | 1016.5 |
| 20260508104601 | 37 | 0 | 0.0 | 0.0 | 0.00 | 0.00 | 0.00 | 90 | 1016.4 |
| 20260508103058 | 37 | 0 | 0.0 | 0.0 | 0.00 | 0.00 | 0.00 | 90 | 1016.2 |
| 20260508101559 | 37 | 0 | 0.0 | 0.0 | 0.00 | 0.00 | 0.00 | 90 | 1016.2 |
| 20260508100058 | 37 | 0 | 0.0 | 0.0 | 0.00 | 0.00 | 0.00 | 90 | 1016.1 |
| 20260508094612 | 37 | 0 | 0.0 | 0.0 | 0.00 | 0.00 | 0.00 | 90 | 1016.0 |
| 20260508093056 | 37 | 0 | 0.0 | 0.0 | 0.00 | 0.00 | 0.00 | 90 | 1016.0 |
| 20260508091601 | 38 | 0 | 0.0 | 0.0 | 0.00 | 0.00 | 0.00 | 90 | 1015.9 |
| 20260508090100 | 38 | 0 | 0.0 | 0.0 | 0.00 | 0.00 | 0.00 | 89 | 1015.7 |
| 20260508084557 | 38 | 0 | 0.0 | 1.0 | 0.00 | 0.00 | 0.00 | 89 | 1015.8 |
| 20260508083055 | 38 | 158 | 0.0 | 0.0 | 0.00 | 0.00 | 0.00 | 89 | 1015.7 |
| 20260508081617 | 38 | 0 | 0.0 | 2.0 | 0.00 | 0.00 | 0.00 | 89 | 1015.8 |
| 20260508074558 | 39 | 0 | 0.0 | 1.0 | 0.00 | 0.00 | 0.00 | 88 | 1015.8 |
| 20260508073058 | 39 | 0 | 0.0 | 1.0 | 0.00 | 0.00 | 0.00 | 88 | 1015.7 |
| 20260508071558 | 40 | 0 | 0.0 | 0.0 | 0.00 | 0.00 | 0.00 | 88 | 1015.7 |
| 20260508070057 | 40 | 0 | 0.0 | 0.0 | 0.00 | 0.00 | 0.00 | 87 | 1015.6 |
| 20260508064556 | 40 | 0 | 0.0 | 2.0 | 0.00 | 0.00 | 0.00 | 87 | 1015.7 |
| 20260508063104 | 40 | 158 | 0.0 | 0.0 | 0.00 | 0.00 | 0.00 | 87 | 1015.8 |
| 20260508061557 | 41 | 0 | 0.0 | 2.0 | 0.00 | 0.00 | 0.00 | 86 | 1015.8 |
| 20260508060105 | 41 | 0 | 0.0 | 1.0 | 0.00 | 0.00 | 0.00 | 85 | 1015.8 |
| 20260508054559 | 41 | 0 | 0.0 | 2.0 | 0.00 | 0.00 | 0.00 | 85 | 1015.8 |
| 20260508053102 | 42 | 0 | 0.0 | 0.0 | 0.00 | 0.00 | 0.00 | 84 | 1015.6 |
| 20260508051556 | 42 | 0 | 0.0 | 0.0 | 0.00 | 0.00 | 0.00 | 83 | 1015.7 |
| 20260508050110 | 43 | 0 | 0.0 | 0.0 | 0.00 | 0.00 | 0.00 | 83 | 1015.8 |
| 20260508044600 | 43 | 0 | 0.0 | 0.0 | 0.00 | 0.00 | 0.00 | 82 | 1015.8 |
| 20260508043154 | 44 | 0 | 0.0 | 0.0 | 0.00 | 0.00 | 0.00 | 81 | 1015.7 |
| 20260508041557 | 45 | 0 | 0.0 | 2.0 | 0.00 | 0.00 | 0.00 | 79 | 1015.6 |
| 20260508040104 | 45 | 0 | 1.0 | 4.0 | 0.00 | 0.00 | 0.00 | 78 | 1015.8 |
| 20260508034633 | 46 | 0 | 0.0 | 0.0 | 0.00 | 0.00 | 0.00 | 76 | 1015.5 |
| 20260508033057 | 47 | 0 | 0.0 | 3.0 | 0.00 | 0.00 | 0.00 | 74 | 1015.5 |
| 20260508031557 | 48 | 208 | 0.0 | 3.0 | 0.00 | 0.00 | 0.00 | 71 | 1015.5 |
| 20260508030055 | 48 | 225 | 0.0 | 2.0 | 0.00 | 0.00 | 0.00 | 67 | 1015.4 |
| 20260508024557 | 49 | 229 | 1.0 | 2.0 | 0.00 | 0.00 | 0.00 | 64 | 1015.1 |
| 20260508023058 | 51 | 232 | 1.0 | 3.0 | 0.00 | 0.00 | 0.00 | 60 | 1014.9 |
| 20260508021602 | 52 | 0 | 0.0 | 0.0 | 0.00 | 0.00 | 0.00 | 55 | 1014.6 |
| 20260508020105 | 53 | 0 | 0.0 | 1.0 | 0.00 | 0.00 | 0.00 | 53 | 1014.4 |
| 20260508014558 | 54 | 0 | 0.0 | 3.0 | 0.00 | 0.00 | 0.00 | 48 | 1014.2 |
| 20260508013057 | 56 | 308 | 1.0 | 4.0 | 0.00 | 0.00 | 0.00 | 46 | 1014.0 |
| 20260508011557 | 57 | 343 | 2.0 | 10.0 | 0.00 | 0.00 | 0.00 | 45 | 1013.9 |
| 20260508010054 | 58 | 335 | 5.0 | 9.0 | 0.00 | 0.00 | 0.00 | 38 | 1013.7 |
| 20260508004601 | 58 | 360 | 5.0 | 10.0 | 0.00 | 0.02 | 0.00 | 39 | 1013.6 |
| 20260508003055 | 59 | 322 | 4.0 | 11.0 | 0.00 | 0.02 | 0.00 | 38 | 1013.5 |
| 20260508001556 | 60 | 322 | 4.0 | 12.0 | 0.00 | 0.02 | 0.00 | 37 | 1013.4 |
| 20260508000059 | 61 | 350 | 2.0 | 7.0 | 0.00 | 0.02 | 0.00 | 38 | 1013.1 |
| 20260507234558 | 61 | 340 | 7.0 | 15.0 | 0.00 | 0.03 | 0.00 | 35 | 1012.8 |
| 20260507233055 | 62 | 335 | 12.0 | 19.0 | 0.00 | 0.03 | 0.00 | 33 | 1012.7 |
| 20260507231558 | 62 | 349 | 9.0 | 19.0 | 0.00 | 0.03 | 0.00 | 35 | 1012.4 |
| 20260507230101 | 63 | 317 | 7.0 | 15.0 | 0.00 | 0.03 | 0.00 | 36 | 1012.5 |
| 20260507224600 | 63 | 270 | 9.0 | 18.0 | 0.00 | 0.03 | 0.00 | 35 | 1012.5 |
| 20260507223056 | 63 | 318 | 9.0 | 13.0 | 0.00 | 0.03 | 0.00 | 38 | 1012.2 |
| 20260507221557 | 62 | 351 | 7.0 | 15.0 | 0.00 | 0.03 | 0.00 | 38 | 1012.3 |
| 20260507220055 | 64 | 315 | 6.0 | 20.0 | 0.00 | 0.03 | 0.00 | 38 | 1012.1 |
| 20260507214603 | 64 | 278 | 9.0 | 16.0 | 0.00 | 0.03 | 0.00 | 38 | 1011.9 |
| 20260507213057 | 64 | 264 | 5.0 | 10.0 | 0.00 | 0.03 | 0.00 | 39 | 1011.9 |
| 20260507211600 | 63 | 43 | 5.0 | 14.0 | 0.00 | 0.03 | 0.00 | 45 | 1011.7 |
| 20260507210105 | 62 | 309 | 3.0 | 14.0 | 0.00 | 0.03 | 0.00 | 44 | 1011.9 |
| 20260507204555 | 63 | 341 | 8.0 | 15.0 | 0.00 | 0.05 | 0.00 | 40 | 1011.8 |
| 20260507203110 | 62 | 308 | 10.0 | 14.0 | 0.00 | 0.05 | 0.00 | 44 | 1011.6 |
| 20260507201600 | 63 | 301 | 9.0 | 15.0 | 0.00 | 0.05 | 0.00 | 43 | 1011.6 |
| 20260507200108 | 64 | 302 | 7.0 | 15.0 | 0.00 | 0.05 | 0.00 | 43 | 1011.7 |
| 20260507194554 | 63 | 341 | 9.0 | 14.0 | 0.00 | 0.07 | 0.00 | 43 | 1011.9 |
| 20260507193058 | 62 | 225 | 6.0 | 14.0 | 0.00 | 0.07 | 0.00 | 44 | 1011.9 |
| 20260507191602 | 63 | 322 | 9.0 | 16.0 | 0.00 | 0.07 | 0.00 | 44 | 1012.2 |
| 20260507190103 | 62 | 235 | 4.0 | 14.0 | 0.00 | 0.07 | 0.00 | 46 | 1012.2 |
| 20260507184559 | 62 | 358 | 5.0 | 12.0 | 0.00 | 0.07 | 0.00 | 47 | 1012.5 |
| 20260507183101 | 60 | 359 | 7.0 | 13.0 | 0.00 | 0.07 | 0.00 | 49 | 1012.8 |
| 20260507181604 | 61 | 335 | 3.0 | 12.0 | 0.00 | 0.07 | 0.00 | 57 | 1012.6 |
| 20260507180056 | 60 | 314 | 8.0 | 14.0 | 0.00 | 0.07 | 0.00 | 52 | 1012.7 |
| 20260507174604 | 61 | 347 | 7.0 | 12.0 | 0.00 | 0.08 | 0.00 | 48 | 1013.0 |
| 20260507173104 | 61 | 247 | 5.0 | 13.0 | 0.00 | 0.08 | 0.00 | 52 | 1013.0 |
| 20260507171605 | 61 | 342 | 4.0 | 12.0 | 0.00 | 0.08 | 0.00 | 53 | 1013.1 |
| 20260507170104 | 60 | 8 | 2.0 | 11.0 | 0.00 | 0.08 | 0.00 | 52 | 1013.2 |
| 20260507164606 | 60 | 6 | 9.0 | 14.0 | 0.00 | 0.09 | 0.00 | 51 | 1013.4 |
| 20260507163058 | 60 | 321 | 1.0 | 4.0 | 0.00 | 0.09 | 0.00 | 59 | 1013.4 |
| 20260507161558 | 59 | 225 | 1.0 | 8.0 | 0.00 | 0.09 | 0.00 | 61 | 1013.6 |
| 20260507160058 | 59 | 299 | 1.0 | 5.0 | 0.00 | 0.09 | 0.00 | 58 | 1013.8 |
| 20260507154559 | 59 | 0 | 1.0 | 6.0 | 0.00 | 0.11 | 0.00 | 59 | 1013.8 |
| 20260507153106 | 58 | 35 | 1.0 | 5.0 | 0.00 | 0.11 | 0.00 | 60 | 1013.8 |
| 20260507151556 | 59 | 134 | 1.0 | 7.0 | 0.00 | 0.11 | 0.00 | 60 | 1013.8 |
| 20260507150059 | 57 | 249 | 1.0 | 6.0 | 0.00 | 0.11 | 0.00 | 62 | 1013.9 |
| 20260507144558 | 56 | 273 | 2.0 | 8.0 | 0.00 | 0.11 | 0.00 | 62 | 1014.1 |
| 20260507143100 | 56 | 104 | 1.0 | 7.0 | 0.00 | 0.11 | 0.00 | 61 | 1014.0 |
| 20260507141556 | 55 | 120 | 2.0 | 7.0 | 0.00 | 0.11 | 0.00 | 62 | 1014.2 |
| 20260507134612 | 53 | 0 | 0.0 | 4.0 | 0.00 | 0.11 | 0.00 | 79 | 1014.6 |
| 20260507133134 | 52 | 0 | 0.0 | 2.0 | 0.00 | 0.11 | 0.00 | 84 | 1014.6 |
| 20260507131557 | 51 | 46 | 0.0 | 1.0 | 0.00 | 0.11 | 0.00 | 88 | 1014.6 |
| 20260507130109 | 51 | 0 | 0.0 | 2.0 | 0.00 | 0.11 | 0.00 | 90 | 1014.7 |
| 20260507124556 | 51 | 40 | 0.0 | 3.0 | 0.00 | 0.11 | 0.00 | 92 | 1014.7 |
| 20260507123056 | 51 | 11 | 0.0 | 2.0 | 0.00 | 0.11 | 0.00 | 92 | 1014.6 |